Tracking 35055 objects as of 18-Aug-2026
HD Live streaming from Space Station
objects crossing your sky now

COSMOS 777 DEB


COSMOS 777 DEB is no longer on orbit


NORAD ID: 8723
Int'l Code: 1975-102BA
Launch date: October 29, 1975
Source: Commonwealth of Independent States (former USSR) (CIS)
Launch site: TYURATAM MISSILE AND SPACE COMPLEX (TTMTR)
Decay date: 1977-04-21

Note: This is SATELLITE DEBRIS
Your satellite tracking list
Your tracking list is empty




NASA's NSSDC Master Catalog

Two Line Element Set (TLE):
1 08723U 75102 BA 77111.26020882  .00046624 +00000-0 +10943-2 0  9991
2 08723 065.7969 208.6878 0054517 281.1991 078.2982 15.40193975082602
Source of the keplerian elements: AFSPC